Weather in Vishnevka

Russia / Kemerovo Oblast     54°24′41″N   86°23′51″E
temp.,
°C
wind,
m/s
gust,
m/s
humid.,
%
clouds,
%
prec.,
mm/h
press.,
hPa
HPBL,
m
5 december, sun
sun501:00−9sw399394 0.1 1032162
04:00−12ssw349683 0.0 103349
07:00−11sse359694 0.0 103364
10:00−10sse3796100 0.0 1031121
13:00−7sse379554 0.0 1029192
16:00−7sse369698 0.0 102796
19:00−3s4991100 0.1 1026401
22:00−3s51091100 0.0 1025383
6 december, mon
mon601:00−3s51091100 0.0 1024356
04:00−3s4992100 0.0 1023339
07:00−2s499197 0.0 1022324
10:00−3s3894100 0.1 1023251
13:00−2s3796100 1.2 1022300
16:00−1sse379494 1.1 1021246
19:00−4se389359 1.1 1021129
22:00−2sse498699 0.0 1019254
7 december, tue
tue701:00−2s4883100 0.0 1018271
04:00−2s4997100 1.8 1017469
07:000ssw51396100 3.1 1015798
10:000sw71494100 0.6 1015840
13:000sw71394100 0.9 1016944
16:00−1wsw71291100 0.3 1017919
19:00−4w7138699 0.5 1021701
22:00−9w61289100 0.0 1026455
8 december, wed
wed801:00−11w4993100 0.1 1030328
04:00−16wsw369899 0.1 103492
07:00−22ssw2210071 0.1 10379
10:00−24sse2210047 0.0 10399
13:00−17ssw12945 0.0 103892
16:00−19se119917 0.0 10389
19:00−24ssw1110067 0.0 10399
22:00−25sw1110012 0.0 10419
9 december, thu
thu901:00−26s1110098 0.0 10439
04:00−26sse2299100 0.0 104413
07:00−26sse2298100 0.0 104615
10:00−26se229846 0.0 104725
13:00−19sse24905 0.0 1046126
16:00−19sse49935 0.0 1044163
19:00−20sse41095100 0.0 1043156
22:00−16sse51091100 0.0 1040328